TimePDT,TemperatureF,Dew PointF,Humidity,Sea Level PressureIn,VisibilityMPH,Wind Direction,Wind SpeedMPH,Gust SpeedMPH,PrecipitationIn,Events,Conditions,WindDirDegrees,DateUTC
12:15 AM,48.2,46.4,93,30.05,3.0,WSW,3.5,-,0.01,Rain,Heavy Rain,240,2013-05-24 07:15:00
12:35 AM,48.2,46.4,93,30.05,4.0,WSW,9.2,-,0.02,,Heavy Drizzle,250,2013-05-24 07:35:00
12:55 AM,46.4,46.4,100,30.05,7.0,West,3.5,-,0.02,,Overcast,260,2013-05-24 07:55:00
1:15 AM,48.2,46.4,93,30.05,5.0,South,3.5,-,N/A,Rain,Light Rain,170,2013-05-24 08:15:00
1:35 AM,46.4,46.4,100,30.04,5.0,South,4.6,-,N/A,,Overcast,180,2013-05-24 08:35:00
1:55 AM,48.2,46.4,93,30.05,7.0,WSW,6.9,-,N/A,,Overcast,240,2013-05-24 08:55:00
2:15 AM,50.0,46.4,87,30.05,7.0,WSW,6.9,-,N/A,,Overcast,240,2013-05-24 09:15:00
2:35 AM,50.0,46.4,87,30.05,7.0,WSW,8.1,-,N/A,,Overcast,240,2013-05-24 09:35:00
2:55 AM,50.0,44.6,82,30.05,7.0,SW,8.1,-,N/A,,Overcast,230,2013-05-24 09:55:00
3:15 AM,50.0,44.6,82,30.05,7.0,WSW,8.1,-,N/A,,Overcast,250,2013-05-24 10:15:00
3:35 AM,50.0,44.6,82,30.05,7.0,WSW,10.4,16.1,N/A,,Overcast,240,2013-05-24 10:35:00
3:55 AM,50.0,44.6,82,30.05,7.0,WSW,9.2,-,N/A,,Overcast,250,2013-05-24 10:55:00
4:15 AM,50.0,44.6,82,30.05,7.0,SW,9.2,-,N/A,,Overcast,230,2013-05-24 11:15:00
4:35 AM,50.0,44.6,82,30.05,7.0,SW,8.1,-,N/A,,Overcast,220,2013-05-24 11:35:00
4:55 AM,50.0,46.4,87,30.05,7.0,SSW,10.4,-,N/A,,Overcast,210,2013-05-24 11:55:00
5:15 AM,50.0,44.6,82,30.05,7.0,WSW,11.5,18.4,N/A,,Overcast,240,2013-05-24 12:15:00
5:35 AM,48.2,44.6,87,30.06,10.0,SW,11.5,-,N/A,,Overcast,220,2013-05-24 12:35:00
5:55 AM,50.0,44.6,82,30.06,7.0,SW,12.7,18.4,N/A,,Overcast,220,2013-05-24 12:55:00
6:15 AM,50.0,44.6,82,30.06,7.0,SW,11.5,-,N/A,,Overcast,220,2013-05-24 13:15:00
6:35 AM,48.2,44.6,87,30.07,4.0,SW,12.7,19.6,N/A,Rain,Rain,220,2013-05-24 13:35:00
6:55 AM,48.2,44.6,87,30.07,4.0,SW,15.0,20.7,N/A,,Overcast,220,2013-05-24 13:55:00
7:15 AM,46.4,44.6,93,30.07,3.0,SSW,18.4,23.0,N/A,,Drizzle,200,2013-05-24 14:15:00
7:35 AM,48.2,46.4,93,30.08,1.8,SW,13.8,-,N/A,,Drizzle,220,2013-05-24 14:35:00
7:55 AM,48.2,46.4,93,30.08,1.5,SSW,17.3,23.0,0.01,Rain,Rain,210,2013-05-24 14:55:00
8:15 AM,46.4,44.6,93,30.08,2.5,South,15.0,21.9,0.01,Rain,Light Rain,190,2013-05-24 15:15:00
8:35 AM,46.4,46.4,100,-9999,2.5,South,16.1,21.9,0.02,Rain,Rain,190,2013-05-24 15:35:00
8:55 AM,48.2,46.4,93,-9999,4.0,SSW,13.8,-,0.02,,Overcast,200,2013-05-24 15:55:00
9:15 AM,48.2,46.4,93,30.09,4.0,SSW,15.0,23.0,N/A,,Overcast,200,2013-05-24 16:15:00
9:35 AM,48.2,46.4,93,30.10,3.0,South,18.4,23.0,N/A,,Overcast,190,2013-05-24 16:35:00
9:55 AM,48.2,46.4,93,30.10,3.0,South,12.7,23.0,N/A,,Overcast,190,2013-05-24 16:55:00
10:15 AM,50.0,48.2,94,30.10,3.0,SSW,15.0,-,N/A,,Overcast,200,2013-05-24 17:15:00
10:35 AM,50.0,48.2,94,30.11,2.0,SSW,18.4,-,N/A,Rain,Light Rain,200,2013-05-24 17:35:00
10:55 AM,50.0,48.2,94,30.11,3.0,SSW,12.7,-,0.01,Rain,Light Rain,200,2013-05-24 17:55:00
11:15 AM,50.0,48.2,94,30.12,2.0,SW,15.0,21.9,0.02,Rain,Light Rain,220,2013-05-24 18:15:00
11:35 AM,50.0,48.2,94,30.12,2.0,SSW,17.3,23.0,0.03,,Drizzle,200,2013-05-24 18:35:00
11:55 AM,50.0,48.2,94,30.12,2.0,SSW,13.8,21.9,0.04,Rain,Light Rain,200,2013-05-24 18:55:00
12:15 PM,50.0,48.2,94,30.12,3.0,South,19.6,-,N/A,,Overcast,190,2013-05-24 19:15:00
12:35 PM,50.0,48.2,94,30.13,2.0,South,15.0,19.6,N/A,,Light Drizzle,190,2013-05-24 19:35:00
12:55 PM,50.0,48.2,94,30.13,2.0,SSW,17.3,20.7,N/A,,Light Drizzle,200,2013-05-24 19:55:00
1:15 PM,50.0,48.2,94,30.13,4.0,SSW,11.5,-,N/A,,Overcast,200,2013-05-24 20:15:00
1:35 PM,50.0,48.2,94,30.14,3.0,South,15.0,20.7,N/A,,Overcast,190,2013-05-24 20:35:00
1:55 PM,50.0,50.0,100,30.14,1.8,SSW,13.8,-,N/A,Rain,Light Rain,200,2013-05-24 20:55:00
2:15 PM,51.8,50.0,94,30.14,5.0,SSW,17.3,21.9,N/A,,Overcast,200,2013-05-24 21:15:00
2:35 PM,51.8,50.0,94,30.15,5.0,SSW,15.0,19.6,N/A,,Overcast,200,2013-05-24 21:35:00
2:55 PM,51.8,50.0,94,30.15,7.0,South,12.7,20.7,N/A,,Overcast,190,2013-05-24 21:55:00
3:15 PM,51.8,50.0,94,30.15,4.0,SSW,12.7,18.4,N/A,,Overcast,200,2013-05-24 22:15:00
3:35 PM,51.8,50.0,94,30.15,3.0,SSW,13.8,-,N/A,,Overcast,200,2013-05-24 22:35:00
3:55 PM,51.8,50.0,94,30.15,4.0,SSW,12.7,-,N/A,,Overcast,200,2013-05-24 22:55:00
4:15 PM,51.8,50.0,94,30.15,7.0,SSW,13.8,-,N/A,,Overcast,200,2013-05-24 23:15:00
4:35 PM,51.8,50.0,94,30.15,5.0,SSW,12.7,-,N/A,,Overcast,200,2013-05-24 23:35:00
4:55 PM,51.8,50.0,94,30.14,10.0,SSW,10.4,-,N/A,,Overcast,210,2013-05-24 23:55:00
5:15 PM,51.8,50.0,94,30.14,10.0,SW,9.2,-,N/A,,Overcast,220,2013-05-25 00:15:00
5:35 PM,53.6,50.0,88,30.14,7.0,SSW,11.5,-,N/A,,Overcast,200,2013-05-25 00:35:00
5:55 PM,51.8,48.2,88,30.14,10.0,SSW,10.4,-,N/A,,Overcast,210,2013-05-25 00:55:00
6:15 PM,51.8,50.0,94,30.14,3.0,SSW,9.2,-,N/A,,Overcast,210,2013-05-25 01:15:00
6:35 PM,51.8,50.0,94,30.14,5.0,SSW,8.1,-,N/A,,Overcast,210,2013-05-25 01:35:00
6:55 PM,50.0,48.2,94,30.14,7.0,SW,6.9,-,N/A,,Overcast,230,2013-05-25 01:55:00
7:15 PM,50.0,48.2,94,30.14,5.0,SW,6.9,-,N/A,,Overcast,220,2013-05-25 02:15:00
7:35 PM,50.0,48.2,94,30.14,3.0,WSW,5.8,-,N/A,,Overcast,240,2013-05-25 02:35:00
7:55 PM,50.0,48.2,94,30.14,7.0,Calm,Calm,-,N/A,,Overcast,0,2013-05-25 02:55:00
8:15 PM,50.0,48.2,94,30.14,3.0,SW,6.9,-,N/A,,Drizzle,230,2013-05-25 03:15:00
8:35 PM,50.0,48.2,94,30.14,2.5,SSW,5.8,-,N/A,Rain,Rain,210,2013-05-25 03:35:00
8:55 PM,50.0,48.2,94,30.14,4.0,SW,3.5,-,N/A,Rain,Light Rain,230,2013-05-25 03:55:00
9:15 PM,50.0,48.2,94,30.14,7.0,South,3.5,-,N/A,,Overcast,170,2013-05-25 04:15:00
9:35 PM,50.0,48.2,94,30.14,7.0,Calm,Calm,-,N/A,,Overcast,0,2013-05-25 04:35:00
9:55 PM,50.0,48.2,94,30.14,7.0,Calm,Calm,-,N/A,,Overcast,0,2013-05-25 04:55:00
10:15 PM,50.0,48.2,94,30.15,7.0,Calm,Calm,-,N/A,,Overcast,0,2013-05-25 05:15:00
10:35 PM,50.0,48.2,94,30.14,10.0,Calm,Calm,-,N/A,,Overcast,0,2013-05-25 05:35:00
10:55 PM,48.2,46.4,93,30.14,10.0,Calm,Calm,-,N/A,,Overcast,0,2013-05-25 05:55:00
11:15 PM,48.2,46.4,93,30.14,10.0,Calm,Calm,-,N/A,,Overcast,0,2013-05-25 06:15:00
11:35 PM,48.2,46.4,93,30.14,10.0,SSE,3.5,-,N/A,,Overcast,150,2013-05-25 06:35:00
11:55 PM,48.2,46.4,93,30.14,10.0,Calm,Calm,-,N/A,,Overcast,0,2013-05-25 06:55:00